La Grande, OR

2:08 PM PDT on May 23, 2018 (GMT -0700)
La Grande-Union County

Weather History for KLGD - March, 2013

Change the Weather History Date:

Saturday, March 2, 2013

  Actual Average Record
Temperature  
Mean Temperature 48 °F -  
Max Temperature 53 °F 43 °F 65 °F (1968)
Min Temperature 44 °F 27 °F 12 °F (1976)
Degree Days  
Heating Degree Days 16    
Moisture  
Dew Point 34 °F    
Average Humidity 59    
Maximum Humidity 71    
Minimum Humidity 50    
Precipitation  
Precipitation 0.00 in - - ()
Sea Level Pressure  
Sea Level Pressure 30.17 in    
Wind  
Wind Speed 14 mph (South)    
Max Wind Speed 24 mph    
Max Gust Speed 34 mph    
Visibility 10 miles    
Events      
Averages and records for this station are not official NWS values.
T = Trace of Precipitation, MM = Missing Value Source: NWS Daily Summary

Daily Weather History Graph

Daily Weather History Graph

Search for Another Location

Airport or City:

Astronomy

Mar. 02, 2013 Rise Set
Actual Time 6:27 AM PST 5:41 PM PST
Civil Twilight 5:58 AM PST 6:10 PM PST
Nautical Twilight 5:24 AM PST 6:44 PM PST
Astronomical Twilight 4:49 AM PST 7:19 PM PST
Moon 11:44 PM PST (3/2) 8:42 AM PST (3/2)
Length of Visible Light 12h 12m
Length of Day
11h 13m
Waning Gibbous, 73% of the Moon is Illuminated
Mar 2
Waning Gibbous
Mar 4
Last Quarter
Mar 11
New
Mar 19
First Quarter
Mar 27
Full

Hourly Weather History & Observations

Time (PST) Temp. Windchill Dew Point Humidity Pressure Visibility Wind Dir Wind Speed Gust Speed Precip Events Conditions
12:15 AM 46.4 °F 40.7 °F 33.8 °F 62% 30.34 in 10.0 mi South 12.7 mph 23.0 mph N/A   Clear
12:35 AM 46.4 °F 40.4 °F 33.8 °F 62% 30.34 in 10.0 mi South 13.8 mph - N/A   Clear
12:55 AM 44.6 °F 38.1 °F 32.0 °F 61% 30.34 in 10.0 mi South 13.8 mph 19.6 mph N/A   Clear
1:15 AM 46.4 °F 40.7 °F 33.8 °F 62% 30.34 in 10.0 mi SSE 12.7 mph - N/A   Clear
1:35 AM 46.4 °F 40.7 °F 33.8 °F 62% 30.33 in 10.0 mi SSE 12.7 mph - N/A   Clear
1:55 AM 46.4 °F 40.7 °F 33.8 °F 62% 30.32 in 10.0 mi SSE 12.7 mph 17.3 mph N/A   Clear
2:15 AM 46.4 °F 40.1 °F 33.8 °F 62% 30.32 in 10.0 mi SSE 15.0 mph 20.7 mph N/A   Clear
2:35 AM 46.4 °F 40.1 °F 32.0 °F 57% 30.32 in 10.0 mi SSE 15.0 mph - N/A   Clear
2:55 AM 46.4 °F 40.7 °F 32.0 °F 57% 30.31 in 10.0 mi SSE 12.7 mph 19.6 mph N/A   Clear
3:15 AM 46.4 °F 39.8 °F 33.8 °F 62% 30.30 in 10.0 mi South 16.1 mph - N/A   Clear
3:35 AM 46.4 °F 39.0 °F 32.0 °F 57% 30.29 in 10.0 mi South 19.6 mph 25.3 mph N/A   Clear
3:55 AM 44.6 °F 37.4 °F 32.0 °F 61% 30.28 in 10.0 mi SSE 16.1 mph 21.9 mph N/A   Scattered Clouds
4:15 AM 44.6 °F 38.1 °F 33.8 °F 66% 30.28 in 10.0 mi SSE 13.8 mph - N/A   Partly Cloudy
4:35 AM 46.4 °F 40.1 °F 33.8 °F 62% 30.28 in 10.0 mi SSE 15.0 mph 23.0 mph N/A   Clear
4:55 AM 46.4 °F 39.0 °F 33.8 °F 62% 30.27 in 10.0 mi SE 19.6 mph 29.9 mph N/A   Clear
5:15 AM 46.4 °F 40.4 °F 33.8 °F 62% 30.27 in 10.0 mi SE 13.8 mph 24.2 mph N/A   Clear
5:35 AM 46.4 °F 39.2 °F 33.8 °F 62% 30.26 in 10.0 mi ESE 18.4 mph 28.8 mph N/A   Clear
5:55 AM 46.4 °F 39.2 °F 33.8 °F 62% 30.26 in 10.0 mi SE 18.4 mph 24.2 mph N/A   Clear
6:15 AM 46.4 °F 40.4 °F 33.8 °F 62% 30.27 in 10.0 mi SSE 13.8 mph 29.9 mph N/A   Clear
6:35 AM 46.4 °F 39.0 °F 33.8 °F 62% 30.25 in 10.0 mi South 19.6 mph 25.3 mph N/A   Clear
6:55 AM 46.4 °F 39.2 °F 33.8 °F 62% 30.25 in 10.0 mi SSE 18.4 mph 27.6 mph N/A   Clear
7:15 AM 46.4 °F 39.8 °F 33.8 °F 62% 30.24 in 10.0 mi South 16.1 mph 26.5 mph N/A   Clear
7:35 AM 44.6 °F 37.2 °F 33.8 °F 66% 30.24 in 10.0 mi SSE 17.3 mph 21.9 mph N/A   Clear
7:55 AM 46.4 °F 39.5 °F 33.8 °F 62% 30.24 in 10.0 mi SSE 17.3 mph 20.7 mph N/A   Clear
8:15 AM 46.4 °F 39.8 °F 33.8 °F 62% 30.24 in 10.0 mi SSE 16.1 mph 24.2 mph N/A   Clear
8:35 AM 46.4 °F 38.1 °F 33.8 °F 62% 30.24 in 10.0 mi South 24.2 mph 27.6 mph N/A   Clear
8:55 AM 46.4 °F 38.3 °F 33.8 °F 62% 30.24 in 10.0 mi South 23.0 mph 32.2 mph N/A   Partly Cloudy
9:15 AM 46.4 °F 38.5 °F 33.8 °F 62% 30.23 in 10.0 mi South 21.9 mph 32.2 mph N/A   Partly Cloudy
9:35 AM 48.2 °F - 33.8 °F 58% 30.22 in 10.0 mi South 23.0 mph 33.4 mph N/A   Clear
9:55 AM 48.2 °F - 33.8 °F 58% 30.22 in 10.0 mi South 19.6 mph 34.5 mph N/A   Partly Cloudy
10:15 AM 48.2 °F - 33.8 °F 58% 30.21 in 10.0 mi South 21.9 mph 27.6 mph N/A   Partly Cloudy
10:35 AM 48.2 °F - 35.6 °F 62% 30.20 in 10.0 mi South 17.3 mph 27.6 mph N/A   Scattered Clouds
10:55 AM 50.0 °F - 35.6 °F 58% 30.19 in 10.0 mi South 18.4 mph 28.8 mph N/A   Scattered Clouds
11:15 AM 50.0 °F - 35.6 °F 58% 30.19 in 10.0 mi South 20.7 mph 25.3 mph N/A   Scattered Clouds
11:35 AM 50.0 °F - 35.6 °F 58% 30.18 in 10.0 mi South 18.4 mph 28.8 mph N/A   Scattered Clouds
11:55 AM 51.8 °F - 35.6 °F 54% 30.17 in 10.0 mi South 18.4 mph 31.1 mph N/A   Clear
12:15 PM 51.8 °F - 35.6 °F 54% 30.15 in 10.0 mi South 17.3 mph 26.5 mph N/A   Clear
12:35 PM 51.8 °F - 35.6 °F 54% 30.14 in 10.0 mi South 21.9 mph 32.2 mph N/A   Clear
12:55 PM 51.8 °F - 35.6 °F 54% 30.12 in 10.0 mi South 19.6 mph 27.6 mph N/A   Clear
1:15 PM 51.8 °F - 35.6 °F 54% 30.12 in 10.0 mi South 19.6 mph 26.5 mph N/A   Clear
1:35 PM 51.8 °F - 33.8 °F 50% 30.11 in 10.0 mi South 23.0 mph - N/A   Clear
1:55 PM 51.8 °F - 33.8 °F 50% 30.11 in 10.0 mi South 24.2 mph 29.9 mph N/A   Clear
2:15 PM 51.8 °F - 35.6 °F 54% 30.10 in 10.0 mi South 19.6 mph 26.5 mph N/A   Clear
2:35 PM 53.6 °F - 35.6 °F 51% 30.09 in 10.0 mi South 19.6 mph 25.3 mph N/A   Partly Cloudy
2:55 PM 51.8 °F - 35.6 °F 54% 30.09 in 10.0 mi South 19.6 mph 26.5 mph N/A   Partly Cloudy
3:15 PM 51.8 °F - 33.8 °F 50% 30.08 in 10.0 mi SSW 18.4 mph 24.2 mph N/A   Clear
3:35 PM 51.8 °F - 33.8 °F 50% 30.08 in 10.0 mi South 19.6 mph 25.3 mph N/A   Partly Cloudy
3:55 PM 51.8 °F - 33.8 °F 50% 30.07 in 10.0 mi SSW 15.0 mph 26.5 mph N/A   Scattered Clouds
4:15 PM 51.8 °F - 33.8 °F 50% 30.07 in 10.0 mi SSW 15.0 mph - N/A   Scattered Clouds
4:35 PM 51.8 °F - 33.8 °F 50% 30.06 in 10.0 mi SSW 15.0 mph - N/A   Mostly Cloudy
4:55 PM 51.8 °F - 33.8 °F 50% 30.06 in 10.0 mi SSW 11.5 mph - N/A   Overcast
5:15 PM 51.8 °F - 33.8 °F 50% 30.06 in 10.0 mi SW 11.5 mph 17.3 mph N/A   Overcast
5:35 PM 51.8 °F - 33.8 °F 50% 30.05 in 10.0 mi South 8.1 mph - N/A   Overcast
5:55 PM 50.0 °F - 33.8 °F 54% 30.06 in 10.0 mi South 11.5 mph - N/A   Overcast
6:15 PM 50.0 °F - 33.8 °F 54% 30.06 in 10.0 mi South 10.4 mph - N/A   Overcast
6:35 PM 48.2 °F - 33.8 °F 58% 30.06 in 10.0 mi SSW 6.9 mph - N/A   Overcast
6:55 PM 48.2 °F - 35.6 °F 62% 30.06 in 10.0 mi Calm Calm - N/A   Overcast
7:15 PM 48.2 °F - 33.8 °F 58% 30.05 in 10.0 mi Calm Calm - N/A   Overcast
7:35 PM 46.4 °F - 35.6 °F 66% 30.06 in 10.0 mi Calm Calm - N/A   Overcast
7:55 PM 46.4 °F 45.2 °F 35.6 °F 66% 30.05 in 10.0 mi North 3.5 mph - N/A   Overcast
8:15 PM 46.4 °F 44.3 °F 35.6 °F 66% 30.06 in 10.0 mi NW 4.6 mph - N/A   Overcast
8:35 PM 46.4 °F 45.2 °F 35.6 °F 66% 30.05 in 10.0 mi North 3.5 mph - N/A   Overcast
8:55 PM 46.4 °F 44.3 °F 35.6 °F 66% 30.05 in 10.0 mi NE 4.6 mph - N/A   Overcast
9:15 PM 46.4 °F - 35.6 °F 66% 30.05 in 10.0 mi Calm Calm - N/A   Overcast
9:35 PM 46.4 °F - 35.6 °F 66% 30.06 in 10.0 mi Calm Calm - N/A   Overcast
9:55 PM 44.6 °F - 35.6 °F 71% 30.05 in 10.0 mi Calm Calm - N/A   Overcast
10:15 PM 46.4 °F 44.3 °F 35.6 °F 66% 30.05 in 10.0 mi South 4.6 mph - N/A   Overcast
10:35 PM 46.4 °F - 33.8 °F 62% 30.04 in 10.0 mi Calm Calm - N/A   Overcast
10:55 PM 46.4 °F 42.4 °F 33.8 °F 62% 30.03 in 10.0 mi South 8.1 mph - N/A   Overcast
11:15 PM 46.4 °F 41.9 °F 33.8 °F 62% 30.02 in 10.0 mi South 9.2 mph 19.6 mph N/A   Overcast
11:35 PM 46.4 °F 42.9 °F 33.8 °F 62% 30.02 in 10.0 mi SW 6.9 mph - N/A   Overcast
11:55 PM 44.6 °F 40.7 °F 33.8 °F 66% 30.01 in 10.0 mi South 6.9 mph - N/A   Overcast